Location: Unspecified
(0.0000°N, 0.0000°E)
Time: 01:25:41
(UTC+00:00)

Vanguard 3 - Pass Details

Date: 10 December 2017
Orbit: 508 x 3264 km, 33.3° (Epoch: 23 June)

Event Time Altitude Azimuth Distance (km) Brightness Sun altitude
Rises 04:57:46 0° 224° (SW) 7,174 11.8 -12.6°
Reaches altitude 10° 05:05:41 10° 207° (SSW) 5,881 11.5 -10.8°
Maximum altitude 05:16:01 18° 171° (S) 4,578 11.4 -8.5°
Drops below altitude 10° 05:24:05 10° 133° (SE) 4,489 12.3 -6.6°
Sets 05:28:44 0° 114° (ESE) 4,980 14.2 -5.5°
